Eveleth, MN

4:08 PM CST on February 14, 2016 (GMT -0600)
Eveleth-Virginia Municipal

Weather History for KEVM - March, 2013

Change the Weather History Date:

Saturday, March 9, 2013

  Actual Average Record
Temperature  
Mean Temperature 26 °F -  
Max Temperature 32 °F 28 °F 46 °F (2015)
Min Temperature 19 °F 7 °F -9 °F (2003)
Degree Days  
Heating Degree Days 40    
Moisture  
Dew Point 28 °F    
Average Humidity 94    
Maximum Humidity 100    
Minimum Humidity 86    
Precipitation  
Precipitation 0.00 in - - ()
Sea Level Pressure  
Sea Level Pressure 29.87 in    
Wind  
Wind Speed 3 mph (East)    
Max Wind Speed 7 mph    
Max Gust Speed -    
Visibility 4 miles    
Events      
Averages and records for this station are not official NWS values.
T = Trace of Precipitation, MM = Missing Value Source: NWS Daily Summary

Daily Weather History Graph

Daily Weather History Graph

Search for Another Location

Airport or City:

Trip Planner

Search our weather history database for the weather conditions in past years. The results will help you decide how hot, cold, wet, or windy it might be!

Date:

Astronomy

Mar. 09, 2013 Rise Set
Actual Time 6:34 AM CST 6:07 PM CST
Civil Twilight 6:03 AM CST 6:37 PM CST
Nautical Twilight 5:28 AM CST 7:13 PM CST
Astronomical Twilight 4:52 AM CST 7:49 PM CST
Moon 5:05 AM CST (3/9) 4:04 PM CST (3/9)
Length of Visible Light 12h 34m
Length of Day
11h 32m
Waning Crescent, 5% of the Moon is Illuminated
Mar 9
Waning Crescent
Mar 11
New
Mar 19
First Quarter
Mar 27
Full
Apr 2
Last Quarter

Hourly Weather History & Observations

Time (CST) Temp. Windchill Dew Point Humidity Pressure Visibility Wind Dir Wind Speed Gust Speed Precip Events Conditions
12:05 AM 23.0 °F - 21.2 °F 93% 30.10 in 4.0 mi Calm Calm - N/A   Clear
12:25 AM 23.0 °F - 21.2 °F 93% 30.09 in 4.0 mi Calm Calm - N/A   Clear
12:45 AM 23.0 °F - 21.2 °F 93% 30.09 in 4.0 mi Calm Calm - N/A   Clear
1:05 AM 23.0 °F 18.4 °F 21.2 °F 93% 30.08 in 4.0 mi NE 3.5 mph - N/A   Clear
1:25 AM 23.0 °F 17.0 °F 21.2 °F 93% 30.07 in 4.0 mi NE 4.6 mph - N/A   Clear
1:45 AM 23.0 °F 18.4 °F 21.2 °F 93% 30.07 in 5.0 mi NE 3.5 mph - N/A   Scattered Clouds
2:05 AM 19.4 °F - 15.8 °F 86% 30.06 in 3.0 mi Calm Calm - N/A   Mostly Cloudy
2:25 AM 19.4 °F - 17.6 °F 93% 30.05 in 4.0 mi Calm Calm - N/A   Overcast
2:45 AM 21.2 °F 16.4 °F 19.4 °F 93% 30.04 in 5.0 mi NE 3.5 mph - N/A   Overcast
3:05 AM 23.0 °F 17.0 °F 21.2 °F 93% 30.03 in 5.0 mi NE 4.6 mph - N/A   Overcast
3:25 AM 24.8 °F 19.1 °F 21.2 °F 86% 30.03 in 7.0 mi NE 4.6 mph - N/A   Overcast
3:45 AM 24.8 °F 19.1 °F 23.0 °F 93% 30.02 in 7.0 mi NE 4.6 mph - N/A   Overcast
4:07 AM 24.8 °F 19.1 °F 23.0 °F 93% 30.01 in 7.0 mi NE 4.6 mph - N/A   Overcast
4:25 AM 24.8 °F 16.9 °F 23.0 °F 93% 30.00 in 7.0 mi NE 6.9 mph - N/A   Overcast
4:45 AM 26.6 °F 19.1 °F 23.0 °F 86% 29.99 in 10.0 mi NE 6.9 mph - N/A   Overcast
5:05 AM 26.6 °F 22.6 °F 23.0 °F 86% 29.99 in 10.0 mi NE 3.5 mph - N/A   Overcast
5:25 AM 26.6 °F 21.2 °F 23.0 °F 86% 29.98 in 7.0 mi ENE 4.6 mph - N/A   Overcast
5:45 AM 26.6 °F 22.6 °F 23.0 °F 86% 29.98 in 10.0 mi ENE 3.5 mph - N/A   Overcast
6:05 AM 26.6 °F 21.2 °F 23.0 °F 86% 29.97 in 10.0 mi ENE 4.6 mph - N/A   Overcast
6:26 AM 26.6 °F 22.6 °F 24.8 °F 93% 29.97 in 2.5 mi East 3.5 mph - N/A   Overcast
6:45 AM 26.6 °F 22.6 °F 24.8 °F 93% 29.96 in 2.0 mi East 3.5 mph - N/A   Overcast
7:05 AM 26.6 °F 21.2 °F 24.8 °F 93% 29.95 in 0.8 mi East 4.6 mph - N/A   Overcast
7:25 AM 28.4 °F 21.2 °F 26.6 °F 93% 29.94 in 1.8 mi East 6.9 mph - N/A   Overcast
7:45 AM 30.2 °F 25.4 °F 28.4 °F 93% 29.93 in 1.0 mi East 4.6 mph - N/A   Overcast
8:05 AM 30.2 °F 24.3 °F 28.4 °F 93% 29.92 in 1.0 mi East 5.8 mph - N/A   Overcast
8:45 AM 30.2 °F 24.3 °F 28.4 °F 93% 29.90 in 1.8 mi East 5.8 mph - N/A   Overcast
9:05 AM 30.2 °F 25.4 °F 28.4 °F 93% 29.90 in 2.5 mi ESE 4.6 mph - N/A   Overcast
9:25 AM 32.0 °F 27.5 °F 30.2 °F 93% 29.88 in 2.5 mi East 4.6 mph - N/A   Overcast
9:45 AM 32.0 °F - 30.2 °F 93% 29.87 in 5.0 mi Calm Calm - N/A   Overcast
10:05 AM 32.0 °F - 30.2 °F 93% 29.87 in 4.0 mi Calm Calm - N/A   Overcast
10:25 AM 32.0 °F 28.7 °F 30.2 °F 93% 29.85 in 7.0 mi ENE 3.5 mph - N/A   Overcast
10:45 AM 32.0 °F - 30.2 °F 93% 29.84 in 7.0 mi Calm Calm - N/A   Overcast
11:05 AM 32.0 °F 28.7 °F 30.2 °F 93% 29.83 in 10.0 mi SE 3.5 mph - N/A   Overcast
11:25 AM 32.0 °F 28.7 °F 30.2 °F 93% 29.84 in 7.0 mi SE 3.5 mph - N/A   Overcast
11:45 AM 32.0 °F 25.6 °F 30.2 °F 93% 29.83 in 5.0 mi SSE 6.9 mph - N/A   Overcast
12:05 PM 32.0 °F 26.4 °F 30.2 °F 93% 29.83 in 3.0 mi SSE 5.8 mph - N/A   Overcast
12:25 PM 32.0 °F 27.5 °F 30.2 °F 93% 29.83 in 2.5 mi SSE 4.6 mph - N/A   Overcast
12:45 PM 32.0 °F 27.5 °F 30.2 °F 93% 29.81 in 2.5 mi SSE 4.6 mph - N/A   Overcast
1:05 PM 32.0 °F 26.4 °F 30.2 °F 93% 29.80 in 2.5 mi SE 5.8 mph - N/A   Overcast
1:25 PM 32.0 °F 25.6 °F 30.2 °F 93% 29.79 in 2.0 mi SE 6.9 mph - N/A   Overcast
1:45 PM 32.0 °F 26.4 °F 30.2 °F 93% 29.79 in 2.0 mi SE 5.8 mph - N/A   Overcast
2:05 PM 32.0 °F 27.5 °F 30.2 °F 93% 29.79 in 2.5 mi SE 4.6 mph - N/A   Overcast
2:25 PM 32.0 °F 26.4 °F 30.2 °F 93% 29.78 in 2.5 mi SSE 5.8 mph - N/A   Overcast
2:45 PM 32.0 °F 26.4 °F 30.2 °F 93% 29.77 in 2.0 mi SSE 5.8 mph - N/A   Overcast
3:05 PM 32.0 °F 28.7 °F 30.2 °F 93% 29.77 in 1.8 mi SE 3.5 mph - N/A   Overcast
3:25 PM 32.0 °F 28.7 °F 30.2 °F 93% 29.76 in 1.0 mi SE 3.5 mph - N/A   Overcast
3:45 PM 32.0 °F - 30.2 °F 93% 29.75 in 1.0 mi Calm Calm - N/A   Overcast
4:05 PM 32.0 °F - 30.2 °F 93% 29.74 in 1.0 mi Calm Calm - N/A   Overcast
4:25 PM 32.0 °F - 30.2 °F 93% 29.73 in 0.8 mi Calm Calm - N/A   Overcast
4:45 PM 32.0 °F - 30.2 °F 93% 29.73 in 0.5 mi Calm Calm - N/A   Overcast
5:05 PM 32.0 °F - 30.2 °F 93% 29.73 in 0.8 mi Calm Calm - N/A   Overcast
5:25 PM 32.0 °F - 30.2 °F 93% 29.75 in 0.5 mi Calm Calm - N/A   Overcast
5:45 PM 32.0 °F - 32.0 °F 100% 29.75 in 0.5 mi Calm Calm - N/A   Overcast
6:05 PM 32.0 °F - 32.0 °F 100% 29.75 in 0.8 mi Calm Calm - N/A   Overcast
6:25 PM 32.0 °F - 32.0 °F 100% 29.75 in 1.0 mi Calm Calm - N/A   Overcast
6:45 PM 32.0 °F - 32.0 °F 100% 29.75 in 1.5 mi Calm Calm - N/A   Overcast
7:05 PM 32.0 °F - 32.0 °F 100% 29.76 in 1.2 mi Calm Calm - N/A   Overcast
7:25 PM 32.0 °F - 32.0 °F 100% 29.76 in 3.0 mi Calm Calm - N/A   Overcast
7:45 PM 32.0 °F - 32.0 °F 100% 29.76 in 2.5 mi Calm Calm - N/A   Overcast
8:05 PM 32.0 °F - 32.0 °F 100% 29.76 in 2.0 mi Calm Calm - N/A   Overcast
8:25 PM 32.0 °F - 32.0 °F 100% 29.76 in 2.0 mi Calm Calm - N/A   Overcast
8:45 PM 32.0 °F - 32.0 °F 100% 29.76 in 2.0 mi Calm Calm - N/A   Overcast
9:05 PM 32.0 °F - 32.0 °F 100% 29.76 in 4.0 mi Calm Calm - N/A   Overcast
9:25 PM 32.0 °F - 32.0 °F 100% 29.76 in 7.0 mi Calm Calm - N/A   Overcast
9:45 PM 32.0 °F - 32.0 °F 100% 29.76 in 7.0 mi Calm Calm - N/A   Overcast
10:05 PM 32.0 °F - 32.0 °F 100% 29.76 in 7.0 mi Calm Calm - N/A   Overcast
10:25 PM 32.0 °F - 32.0 °F 100% 29.77 in 7.0 mi Calm Calm - N/A   Overcast
10:45 PM 32.0 °F - 30.2 °F 93% 29.77 in 10.0 mi Calm Calm - N/A   Overcast
11:05 PM 32.0 °F - 30.2 °F 93% 29.77 in 10.0 mi Calm Calm - N/A   Overcast
11:27 PM 32.0 °F 28.7 °F 30.2 °F 93% 29.77 in 10.0 mi NW 3.5 mph - N/A   Overcast
11:45 PM 32.0 °F 28.7 °F 30.2 °F 93% 29.78 in 10.0 mi NNW 3.5 mph - N/A   Overcast